Location: Guayaquil
(2.1667°S, 79.9000°W)
Time: 18:27:46
(UTC-05:00)

OTV 5 (USA 277) - Visible Passes

Search period start: 15 February 2019 00:00
Search period end: 25 February 2019 00:00
Orbit: 342 x 346 km, 54.5° (Epoch: 09 February)

Date Brightness Start Highest point End Pass type
(mag) Time Alt. Az. Time Alt. Az. Time Alt. Az.
15 Feb ? 19:34:08 10° S 19:36:18 22° SE 19:36:18 22° SE visible
16 Feb ? 19:57:18 10° SW 20:00:04 41° WNW 20:00:07 41° NW visible
18 Feb ? 19:09:42 10° SW 19:12:29 45° WNW 19:15:15 10° NNE visible
21 Feb ? 05:47:42 10° N 05:50:16 29° ENE 05:52:50 10° ESE visible
23 Feb ? 05:02:33 27° NE 05:02:42 27° ENE 05:05:13 10° ESE visible
24 Feb ? 05:26:30 32° SW 05:26:30 32° SW 05:28:52 10° S visible
